When you browse on this site, cookies collect data to enhance your experience and personalize the content and advertising you see.
Visit our Privacy Policy to learn more. By continuing to use the site, you agree to this use of cookies and data.
  • In Österreich
  • Länderverzeichnis
  • Für 7 Tage
  • Wassertemperatur
  • Wetterkarte
  • News
  • Widgets
  • user-avatar
    Anmelden

    Stündliche Wetter Faru

    Heute, 18 September, Mittwoch

    Zeit Temperatur Niederschläge Wind Luftdruck Luftfeuchtigkeit
    00:00 +17°C° 0 mm 3 m/S 760 mmHg 91%
    01:00 +17°C° 0 mm 2 m/S 760 mmHg 89%
    02:00 +17°C° 0 mm 2 m/S 760 mmHg 88%
    03:00 +16°C° 0 mm 2 m/S 760 mmHg 88%
    04:00 +16°C° 0 mm 2 m/S 760 mmHg 87%
    05:00 +16°C° 0 mm 2 m/S 760 mmHg 87%
    06:00 +19°C° 0 mm 2 m/S 760 mmHg 76%
    07:00 +22°C° 0 mm 1 m/S 761 mmHg 66%
    08:00 +25°C° 0 mm 1 m/S 761 mmHg 55%
    09:00 +27°C° 0 mm 2 m/S 761 mmHg 49%
    10:00 +29°C° 0 mm 2 m/S 761 mmHg 43%
    11:00 +30°C° 0 mm 2 m/S 761 mmHg 36%
    12:00 +30°C° 0 mm 3 m/S 761 mmHg 37%
    13:00 +32°C° 0 mm 4 m/S 760 mmHg 38%
    14:00 +32°C° 0 mm 5 m/S 760 mmHg 39%
    15:00 +29°C° 0 mm 5 m/S 760 mmHg 44%
    16:00 +28°C° 0 mm 6 m/S 760 mmHg 49%
    17:00 +27°C° 0 mm 6 m/S 760 mmHg 54%
    18:00 +23°C° 0 mm 6 m/S 761 mmHg 64%
    19:00 +21°C° 0 mm 5 m/S 761 mmHg 74%
    20:00 +19°C° 0 mm 5 m/S 761 mmHg 83%
    21:00 +19°C° 0 mm 5 m/S 761 mmHg 85%
    22:00 +19°C° 0 mm 4 m/S 761 mmHg 87%
    23:00 +18°C° 0 mm 4 m/S 761 mmHg 88%

    Morgen, 19 September, Donnerstag

    Zeit Temperatur Niederschläge Wind Luftdruck Luftfeuchtigkeit
    00:00 +18°C° 0 mm 3 m/S 761 mmHg 89%
    01:00 +18°C° 0 mm 3 m/S 761 mmHg 90%
    02:00 +17°C° 0 mm 3 m/S 760 mmHg 91%
    03:00 +17°C° 0 mm 2 m/S 760 mmHg 90%
    04:00 +17°C° 0 mm 2 m/S 761 mmHg 89%
    05:00 +17°C° 0 mm 2 m/S 761 mmHg 88%
    06:00 +19°C° 0 mm 2 m/S 761 mmHg 76%
    07:00 +23°C° 0 mm 2 m/S 761 mmHg 64%
    08:00 +26°C° 0 mm 2 m/S 762 mmHg 52%
    09:00 +28°C° 0 mm 2 m/S 761 mmHg 45%
    10:00 +30°C° 0 mm 2 m/S 761 mmHg 39%
    11:00 +33°C° 0 mm 3 m/S 761 mmHg 32%
    12:00 +33°C° 0 mm 4 m/S 761 mmHg 33%
    13:00 +33°C° 0 mm 4 m/S 760 mmHg 34%
    14:00 +33°C° 0 mm 5 m/S 760 mmHg 35%
    15:00 +30°C° 0 mm 5 m/S 760 mmHg 42%
    16:00 +28°C° 0 mm 5 m/S 760 mmHg 50%
    17:00 +26°C° 0 mm 5 m/S 759 mmHg 57%
    18:00 +23°C° 0 mm 5 m/S 760 mmHg 67%
    19:00 +21°C° 0 mm 5 m/S 760 mmHg 76%
    20:00 +19°C° 0 mm 5 m/S 761 mmHg 86%
    21:00 +19°C° 0 mm 4 m/S 760 mmHg 87%
    22:00 +18°C° 0 mm 3 m/S 760 mmHg 89%
    23:00 +18°C° 0 mm 3 m/S 760 mmHg 90%

    übermorgen, 20 September, Freitag

    Zeit Temperatur Niederschläge Wind Luftdruck Luftfeuchtigkeit
    00:00 +18°C° 0 mm 3 m/S 760 mmHg 91%
    01:00 +18°C° 0 mm 2 m/S 759 mmHg 91%
    02:00 +17°C° 0 mm 2 m/S 759 mmHg 92%
    03:00 +17°C° 0 mm 2 m/S 759 mmHg 92%
    04:00 +17°C° 0 mm 2 m/S 759 mmHg 91%
    05:00 +17°C° 0 mm 2 m/S 759 mmHg 90%
    06:00 +20°C° 0 mm 2 m/S 759 mmHg 78%
    07:00 +23°C° 0 mm 1 m/S 759 mmHg 66%
    08:00 +26°C° 0 mm 1 m/S 760 mmHg 54%
    09:00 +27°C° 0 mm 2 m/S 759 mmHg 51%
    10:00 +28°C° 0 mm 2 m/S 759 mmHg 49%
    11:00 +28°C° 0 mm 3 m/S 759 mmHg 46%
    12:00 +28°C° 0 mm 3 m/S 759 mmHg 47%
    13:00 +28°C° 0 mm 4 m/S 759 mmHg 47%
    14:00 +28°C° 0 mm 4 m/S 758 mmHg 47%
    15:00 +27°C° 0 mm 4 m/S 758 mmHg 53%
    16:00 +25°C° 0 mm 4 m/S 758 mmHg 59%
    17:00 +23°C° 0 mm 4 m/S 758 mmHg 65%
    18:00 +21°C° 0 mm 4 m/S 758 mmHg 72%
    19:00 +20°C° 0 mm 3 m/S 759 mmHg 79%
    20:00 +18°C° 0 mm 3 m/S 759 mmHg 86%
    21:00 +18°C° 0 mm 3 m/S 759 mmHg 88%
    22:00 +18°C° 0 mm 2 m/S 758 mmHg 89%
    23:00 +18°C° 0 mm 1 m/S 758 mmHg 90%

    21 September, Samstag

    Zeit Temperatur Niederschläge Wind Luftdruck Luftfeuchtigkeit
    00:00 +18°C° 0 mm 2 m/S 758 mmHg 92%
    01:00 +18°C° 0 mm 2 m/S 758 mmHg 94%
    02:00 +18°C° 0 mm 2 m/S 758 mmHg 96%
    03:00 +19°C° 0.1 mm 2 m/S 757 mmHg 96%
    04:00 +19°C° 0.1 mm 3 m/S 757 mmHg 96%
    05:00 +20°C° 0.1 mm 3 m/S 757 mmHg 96%
    06:00 +21°C° 0.1 mm 4 m/S 757 mmHg 93%
    07:00 +21°C° 0.1 mm 5 m/S 758 mmHg 89%
    08:00 +22°C° 0.1 mm 5 m/S 758 mmHg 86%
    09:00 +23°C° 0.2 mm 6 m/S 758 mmHg 81%
    10:00 +24°C° 0.2 mm 6 m/S 758 mmHg 77%
    11:00 +26°C° 0.2 mm 7 m/S 758 mmHg 73%
    12:00 +26°C° 0.2 mm 6 m/S 757 mmHg 72%
    13:00 +26°C° 0.2 mm 6 m/S 757 mmHg 72%
    14:00 +26°C° 0.2 mm 6 m/S 757 mmHg 71%
    15:00 +24°C° 0.1 mm 6 m/S 757 mmHg 76%
    16:00 +23°C° 0.1 mm 5 m/S 757 mmHg 80%
    17:00 +22°C° 0.1 mm 5 m/S 757 mmHg 84%
    18:00 +22°C° 0.5 mm 5 m/S 758 mmHg 88%
    19:00 +22°C° 0.5 mm 4 m/S 758 mmHg 91%
    20:00 +22°C° 0.5 mm 4 m/S 759 mmHg 95%
    21:00 +21°C° 0.2 mm 4 m/S 759 mmHg 93%
    22:00 +21°C° 0.2 mm 4 m/S 759 mmHg 91%
    23:00 +20°C° 0.2 mm 4 m/S 759 mmHg 89%

    22 September, Sonntag

    Zeit Temperatur Niederschläge Wind Luftdruck Luftfeuchtigkeit
    00:00 +20°C° 0 mm 4 m/S 759 mmHg 90%
    01:00 +19°C° 0 mm 4 m/S 759 mmHg 91%
    02:00 +19°C° 0 mm 4 m/S 759 mmHg 91%
    03:00 +18°C° 0 mm 4 m/S 759 mmHg 91%
    04:00 +17°C° 0 mm 4 m/S 760 mmHg 91%
    05:00 +15°C° 0 mm 4 m/S 760 mmHg 91%
    06:00 +18°C° 0 mm 4 m/S 760 mmHg 81%
    07:00 +19°C° 0 mm 4 m/S 761 mmHg 72%
    08:00 +21°C° 0 mm 5 m/S 761 mmHg 62%
    09:00 +23°C° 0 mm 4 m/S 761 mmHg 57%
    10:00 +25°C° 0 mm 4 m/S 762 mmHg 52%
    11:00 +27°C° 0 mm 3 m/S 762 mmHg 46%
    12:00 +28°C° 0 mm 4 m/S 761 mmHg 41%
    13:00 +28°C° 0 mm 5 m/S 761 mmHg 37%
    14:00 +29°C° 0 mm 6 m/S 761 mmHg 32%
    15:00 +28°C° 0 mm 6 m/S 761 mmHg 35%
    16:00 +26°C° 0 mm 6 m/S 761 mmHg 38%
    17:00 +24°C° 0 mm 6 m/S 761 mmHg 40%
    18:00 +22°C° 0 mm 6 m/S 762 mmHg 50%
    19:00 +21°C° 0 mm 6 m/S 762 mmHg 60%
    20:00 +19°C° 0 mm 6 m/S 763 mmHg 69%
    21:00 +18°C° 0 mm 7 m/S 763 mmHg 70%
    22:00 +18°C° 0 mm 7 m/S 763 mmHg 70%
    23:00 +17°C° 0 mm 7 m/S 763 mmHg 70%

    23 September, Montag

    Zeit Temperatur Niederschläge Wind Luftdruck Luftfeuchtigkeit
    00:00 +17°C° 0 mm 7 m/S 763 mmHg 71%
    01:00 +17°C° 0 mm 6 m/S 763 mmHg 72%
    02:00 +16°C° 0 mm 6 m/S 763 mmHg 73%
    03:00 +16°C° 0 mm 6 m/S 763 mmHg 72%
    04:00 +16°C° 0 mm 5 m/S 763 mmHg 71%
    05:00 +15°C° 0 mm 5 m/S 763 mmHg 70%
    06:00 +17°C° 0 mm 5 m/S 763 mmHg 62%
    07:00 +20°C° 0 mm 4 m/S 763 mmHg 53%
    08:00 +22°C° 0 mm 4 m/S 763 mmHg 45%
    09:00 +25°C° 0 mm 3 m/S 763 mmHg 37%
    10:00 +28°C° 0 mm 3 m/S 763 mmHg 30%
    11:00 +30°C° 0 mm 2 m/S 763 mmHg 22%
    12:00 +30°C° 0 mm 3 m/S 763 mmHg 21%
    13:00 +32°C° 0 mm 4 m/S 762 mmHg 19%
    14:00 +33°C° 0 mm 4 m/S 762 mmHg 18%
    15:00 +30°C° 0 mm 4 m/S 762 mmHg 21%
    16:00 +29°C° 0 mm 4 m/S 761 mmHg 24%
    17:00 +27°C° 0 mm 4 m/S 761 mmHg 27%
    18:00 +26°C° 0 mm 4 m/S 762 mmHg 33%
    19:00 +23°C° 0 mm 4 m/S 762 mmHg 39%
    20:00 +22°C° 0 mm 4 m/S 763 mmHg 44%
    21:00 +21°C° 0 mm 4 m/S 762 mmHg 46%
    22:00 +21°C° 0 mm 3 m/S 762 mmHg 47%
    23:00 +20°C° 0 mm 3 m/S 762 mmHg 48%
    Mehr zeigen